Погода в Кизляре

Погода в Кизляре : погода сейчас, прогноз погоды и архив. Всё, что Вы хотите узнать о погоде в Кизляре!

Поиск расширенной информации на нашем сайте:

Полезная информация: двигатель d4dd хабаровск

Другие новости

Новости СМИ2

Главная страница сайта

Новости сайта

02.10.2013

Напоминаем, что на нашем новом сайте вы можете получить высокодетализированные прогнозы погоды по пунктам России, СНГ и мира (включающие важные для авиации метеовеличины, такие как направление и скорость ветра, видимость, явления погоды, количество и форма облачности, нижняя и верхняя граница облачности), а также ознакомиться с разнообразными материалами по авиационной метеорологии и подборкой полезных ссылок на эту тему.

Сайт Метеоцентр.Азия посвящён разработке технологий оптимизации авиаметеорологического обслуживания, включая проектирование и перспективное создание нескольких автоматизированных авиаметеорологических систем:
- система выпуска высокодетальных прогностических карт явлений погоды для нижнего воздушного пространства по России и ближнему зарубежью;
- система верификации прогнозов TAF (выпускаемых синоптиками официальных АМСГ РФ и ближнего зарубежья) и AUTOTAF (выпускаемых сайтом Метеоцентр.Азия) - выявление ошибок, онлайн-сопоставление с фактической погодой METAR, автоматическое внесение коррективов в прогнозы при резком отклонении фактической погоды от прогноза, подсчёт оправдываемости прогнозов по элементам и в целом;
- система обработки, анализа и отображения авиаметеорологической информации для применения провайдерами метеорологической информации.

Рекомендуем: Школа трейдинга на nyse bcs.ru/broker/global/bcs-laser.asp.

Погода в Кизляре - сегодня

Время (UTC), дата Ветер
(°,м/с) 
Видим.   Явления Облачность Т
(°С)
Тd
(°С)
f(%) Тe
(°С)
Pmin
(гПа)
dP
(гПа)
Po
(мм)
O2
(г/м3)
Тmin Tmax R s Состояние
почвы
09 18.01.17 040 (СВ) 4000 м  дымка  10/10 600 м 
[Sc]
+1.4 +1.4 100 -1  1028.8  0.1  772  309           
12 18.01.17 040 (СВ) 4000 м  дымка  10/10 600 м 
[Sc]
+0.6 +0.4 99 -2  1028.7  -0.1  772  310           
15 18.01.17 050 (СВ) 4000 м  дымка  10/10 600 м 
[Sc]
+0 +0 100 -3  1029.7  773  311    +1.7       
18 18.01.17 030 (СВ) 4000 м  дымка  10/10 600 м 
[Sc]
-1.2 -1.2 100 -4  1030.2  0.5  773  313           
21 18.01.17 030 (СВ) 4000 м  дымка  10/10 600 м 
[Sc]
-1.6 -3 90 -4  1029.7  -0.5  773  314           
00 19.01.17 040 (СВ) 10 км    10/10 600 м 
[Sc]
-1.9 -4 86 -5  1029.7  773  314           
03 19.01.17 030 (СВ) 10 км    9/9 600 м средняя 
[Sc|Ac trans]
-2.2 -4.6 84 -4  1030.4  773  315  -2.2         
06 19.01.17 030 (СВ) 10 км    10/10 600 м 
[Sc]
-2.5 -5.1 82 -5  1032.2  1.8  775  316  -2.6         
09 19.01.17 040 (СВ) 10 км    10/10 600 м 
[Sc]
-2.1 -5.8 76 -4  1032.2  775  315           
12 19.01.17 020 (С) 10 км    10/10 600 м 
[Sc]
-3.1 -6.5 77 -5  1032.4  0.2  775  317           
15 19.01.17 030 (СВ) 10 км    10/10 600 м 
[Sc]
-4.3 -7.7 77 -6  1033.4  1.1  776  318    -2.1       
18 19.01.17 010 (С) 10 км    10/10 600 м 
[Sc]
-4.6 -7.2 82 -6  1033.8  0.3  776  319           
21 19.01.17 330 (СЗ) 10 км    6/6 600 м средняя 
[Sc|Ac trans]
-4.9 -7 85 -4  1033.3  -0.5  775  319           
00 20.01.17 310 (СЗ) 4000 м  дымка  10/10 600 м 
[Sc]
-5.2 -5.6 97 -5  1032.8  -0.5  775  319           
03 20.01.17 тихо ()   10 км    10/10 600 м 
[Sc]
-5.1 -8.3 78 -5  1032.2  -0.6  775  319  -6.4         
06 20.01.17 080 (В) 10 км    9/9 600 м средняя 
[Sc|Ac trans]
-4.9 -8.1 78 -4  1032.5  0.3  775  319           
09 20.01.17 180 (Ю) 10 км    10/10 600 м 
[Sc]
-3.5 -7.2 75 -5  1030.8  -1.8  774  317           
12 20.01.17 тихо ()   10 км    10/10 600 м 
[Sc]
-2.7 -6.4 76 -3  1028.7  -2.1  772  315           
15 20.01.17 260 (З) 10 км    10/10 600 м 
[Sc]
-3.6 -5.9 84 -3  1028  -0.7  771  316    -2.2       
18 20.01.17 270 (З) 10 км    10/10 600 м 
[Sc]
-3.7 -5.6 87 -6  1027.6  -0.4  771  316           
21 20.01.17 260 (З) 4000 м  дымка  10/10 600 м 
[Sc]
-4.7 -5.1 97 -7  1026.7  -0.9  770  317           
00 21.01.17 270 (З) 10 км    10/10 600 м 
[Sc]
-4 -6.1 85 -8  1025.9  -0.8  770  316           
03 21.01.17 250 (З) 10 км    10/10 600 м 
[Sc]
-3.7 -5.5 87 -6  1025.2  -0.7  769  315  -4.7         
06 21.01.17 250 (З) 4000 м  дымка  6/6 600 м средняя 
[Sc|Ac trans]
-3.5 -5.1 89 -6  1025.7  0.5  770  315           
09 21.01.17 260 (З) 10 км    6/6 600 м средняя 
[Sc|Ac trans]
+1.5 -6.2 57 -1  1024.3  -1.4  769  309           
Время (UTC), дата Ветер
(°,м/с) 
Видим.   Явления Облачность Т
(°С)
Тd
(°С)
f(%) Тe
(°С)
Pmin
(гПа)
dP
(гПа)
Po
(мм)
O2
(г/м3)
Тmin Tmax R s Состояние
почвы

Для получения пояснительной информации подведите курсор к названию столбца.

ПОГОДА в Кизляре - архив

Всё, что Вы хотите узнать о погоде в Кизляре - удобно и подробно!

Выберите нужную дату (начиная с 1 января 2015* года) и нажмите кнопку "Найти".
Будут отображены архивные сводки погоды по пункту Кизляр, начиная с указанной даты.


Отображать данные в формате CSV (для использования в таблицах Excel)


Внимание! Наш архив погоды предназначен исключительно для личного некоммерческого использования в познавательных целях. Если Вам необходимы официальные справки о состоянии погоды (для производственных, юридических, коммерческих и т.п. целей), обращайтесь в органы Росгидромета.

*Примечание: данная дата относится к архиву по метеостанциям СССР (Россия, СНГ, Балтия).
Архив по метеостанциям Зарубежной Европы и Азии (кроме Китая) хранится 10 дней, по другим регионам земного шара (Китай, Африка, Америка, Австралия, Океания) - 1 день.

Кизляр - район местоположения метеостанции


Название, широта, долгота, высота метеостанции:
Кизляр 43.8°ш. 46.7°д. -5 м над ур. моря [Российская Федерация]

Дополнительная информация

В oтличие oт бoльшинства пoгoдных сайтoв мы публикуем пoдрoбную метеoинфoрмацию в детальнoм прoфессиoнальнoм фoрмате.

Характеристики температуры и влажнoсти вoздуха измеряются на высoте 2 м в тени вдали oт зданий и деревьев.
Скoрoсть ветра измеряется на высoте 10 м (на урoвне рoста челoвека скoрoсть ветра ниже в 1.5-2 раза). Если метеoстанция нахoдится в гoрoде или в лесу, тo скoрoсть ветра занижена на 2-4 м/с пo сравнению с oткрытым местoм. Скoрoсть ветра над акватoриями крупных рек и oзёр, а также на вершинах хoлмoв на 2-5 м/с выше, чем в oбычных услoвиях.
Атмoсфернoе давление в разных тoчках местнoсти мoжет значительнo oтличаться oт давления на метеoстанции, в зависимoсти oт услoвий рельефа (при пoдъёме на 10 м давление пoнижается примернo на 1 мм рт.ст.).